Weather History for Wrangell, AK

Change the Weather History Date:

Thursday, May 16, 2013

  Actual Average Record
Temperature  
Mean Temperature 50 °F -  
Max Temperature 53 °F 55 °F 71 °F (1993)
Min Temperature 46 °F 40 °F 34 °F (1968)
Degree Days  
Heating Degree Days 16    
Moisture  
Dew Point 45 °F    
Average Humidity 84    
Maximum Humidity 93    
Minimum Humidity 76    
Precipitation  
Precipitation 0.04 in - - ()
Sea Level Pressure  
Sea Level Pressure 30.00 in    
Wind  
Wind Speed 5 mph (ESE)    
Max Wind Speed 10 mph    
Max Gust Speed -    
Visibility 10 miles    
Events      
Averages and records for this station are not official NWS values.
T = Trace of Precipitation, MM = Missing Value Source: NWS Daily Summary

Daily Weather History Graph

Daily Weather History Graph

Search for Another Location

Airport:

Trip Planner

Search our weather history database for the weather conditions in past years. The results will help you decide how hot, cold, wet, or windy it might be!

Date:

Astronomy

May. 16, 2013 Rise Set
Actual Time 4:31 AM AKDT 9:01 PM AKDT
Civil Twilight 3:39 AM AKDT 9:53 PM AKDT
Nautical Twilight 2:15 AM AKDT 11:19 PM AKDT
Astronomical Twilight Sun does not rise Sun does not rise
Moon 10:36 AM AKDT (5/16) 1:04 AM AKDT (5/16)
Length of Visible Light 18h 14m
Length of Day
16h 30m
Waxing Crescent, 37% of the Moon is Illuminated
May 16
Waxing Crescent
May 17
First Quarter
May 24
Full
May 31
Last Quarter
Jun 8
New

Hourly Weather History & Observations

Time (AKDT) Temp. Windchill Dew Point Humidity Pressure Visibility Wind Dir Wind Speed Gust Speed Precip Events Conditions
12:16 AM 48.2 °F - 44.6 °F 87% 30.03 in 10.0 mi ESE 5.8 mph - N/A   Mostly Cloudy
12:36 AM 48.2 °F - 44.6 °F 87% 30.03 in 10.0 mi East 5.8 mph - N/A   Overcast
12:56 AM 48.2 °F - 44.6 °F 87% 30.03 in 9.0 mi ESE 6.9 mph - N/A   Overcast
1:16 AM 48.2 °F - 44.6 °F 87% 30.03 in 10.0 mi East 8.1 mph - N/A   Overcast
1:36 AM 48.2 °F - 44.6 °F 87% 30.03 in 5.0 mi ESE 5.8 mph - N/A   Overcast
1:56 AM 48.2 °F - 44.6 °F 87% 30.03 in 5.0 mi ESE 8.1 mph - N/A   Mostly Cloudy
2:16 AM 48.2 °F - 44.6 °F 87% 30.03 in 8.0 mi ESE 6.9 mph - N/A   Overcast
2:36 AM 48.2 °F - 44.6 °F 87% 30.03 in 8.0 mi SE 5.8 mph - N/A   Overcast
2:56 AM 48.2 °F - 44.6 °F 87% 30.03 in 10.0 mi ESE 4.6 mph - N/A   Overcast
3:16 AM 48.2 °F - 44.6 °F 87% 30.03 in 10.0 mi ESE 6.9 mph - 0.01 in   Overcast
3:36 AM 48.2 °F - 44.6 °F 87% 30.03 in 10.0 mi ESE 4.6 mph - 0.01 in   Overcast
3:56 AM 46.4 °F 42.9 °F 44.6 °F 93% 30.03 in 10.0 mi ESE 6.9 mph - 0.01 in   Overcast
4:16 AM 46.4 °F 45.2 °F 44.6 °F 93% 30.03 in 10.0 mi SSE 3.5 mph - N/A   Overcast
4:36 AM 48.2 °F - 44.6 °F 87% 30.03 in 10.0 mi ESE 4.6 mph - N/A   Overcast
4:56 AM 48.2 °F - 44.6 °F 87% 30.03 in 10.0 mi ESE 6.9 mph - N/A   Overcast
5:16 AM 46.4 °F 43.5 °F 44.6 °F 93% 30.03 in 10.0 mi ESE 5.8 mph - N/A   Overcast
5:36 AM 46.4 °F 44.3 °F 44.6 °F 93% 30.03 in 10.0 mi ESE 4.6 mph - N/A   Overcast
5:56 AM 46.4 °F 42.9 °F 44.6 °F 93% 30.04 in 10.0 mi ESE 6.9 mph - N/A   Overcast
6:16 AM 48.2 °F - 44.6 °F 87% 30.04 in 10.0 mi ESE 3.5 mph - N/A   Overcast
6:36 AM 48.2 °F - 44.6 °F 87% 30.03 in 10.0 mi ESE 8.1 mph - N/A   Overcast
6:56 AM 48.2 °F - 44.6 °F 87% 30.03 in 10.0 mi ESE 8.1 mph - N/A   Overcast
7:16 AM 48.2 °F - 44.6 °F 87% 30.03 in 10.0 mi East 10.4 mph - N/A   Overcast
7:36 AM 48.2 °F - 44.6 °F 87% 30.03 in 10.0 mi ESE 5.8 mph - N/A   Overcast
7:56 AM 48.2 °F - 44.6 °F 87% 30.03 in 10.0 mi SSE 3.5 mph - N/A   Overcast
8:16 AM 48.2 °F - 44.6 °F 87% 30.03 in 10.0 mi East 9.2 mph - N/A   Overcast
8:36 AM 48.2 °F - 44.6 °F 87% 30.03 in 10.0 mi East 9.2 mph - N/A   Overcast
8:56 AM 48.2 °F - 44.6 °F 87% 30.03 in 10.0 mi ESE 6.9 mph - N/A   Overcast
9:16 AM 48.2 °F - 44.6 °F 87% 30.03 in 10.0 mi ESE 3.5 mph - N/A   Overcast
9:36 AM 50.0 °F - 46.4 °F 87% 30.02 in 10.0 mi NE 3.5 mph - N/A   Overcast
9:56 AM 50.0 °F - 44.6 °F 82% 30.03 in 10.0 mi Calm Calm - N/A   Overcast
10:16 AM 51.8 °F - 44.6 °F 76% 30.02 in 10.0 mi East 3.5 mph - N/A   Overcast
10:36 AM 50.0 °F - 44.6 °F 82% 30.02 in 10.0 mi Calm Calm - N/A   Overcast
10:56 AM 51.8 °F - 44.6 °F 76% 30.02 in 10.0 mi North 3.5 mph - N/A   Overcast
11:16 AM 50.0 °F - 44.6 °F 82% 30.02 in 10.0 mi Calm Calm - N/A   Overcast
11:36 AM 50.0 °F - 46.4 °F 87% 30.02 in 10.0 mi Calm Calm - 0.01 in   Overcast
11:56 AM 51.8 °F - 46.4 °F 82% 30.02 in 10.0 mi Calm Calm - 0.01 in   Overcast
12:16 PM 51.8 °F - 46.4 °F 82% 30.01 in 10.0 mi SSE 3.5 mph - N/A   Overcast
12:36 PM 53.6 °F - 46.4 °F 77% 30.01 in 10.0 mi Calm Calm - N/A   Overcast
12:56 PM 51.8 °F - 44.6 °F 76% 30.01 in 10.0 mi SE 3.5 mph - N/A   Overcast
1:16 PM 53.6 °F - 46.4 °F 77% 30.01 in 10.0 mi Calm Calm - N/A   Overcast
1:36 PM 51.8 °F - 46.4 °F 82% 30.01 in 10.0 mi NNW 3.5 mph - N/A   Overcast
1:56 PM 51.8 °F - 46.4 °F 82% 30.01 in 10.0 mi WNW 5.8 mph - 0.01 in   Overcast
2:16 PM 51.8 °F - 46.4 °F 82% 30.00 in 10.0 mi West 5.8 mph - N/A   Overcast
2:36 PM 51.8 °F - 46.4 °F 82% 30.00 in 10.0 mi SW 6.9 mph - N/A   Overcast
2:56 PM 51.8 °F - 46.4 °F 82% 30.00 in 10.0 mi SW 4.6 mph - N/A   Overcast
3:16 PM 51.8 °F - 46.4 °F 82% 29.99 in 10.0 mi NW 3.5 mph - N/A   Overcast
3:36 PM 51.8 °F - 46.4 °F 82% 29.99 in 10.0 mi WNW 4.6 mph - N/A   Overcast
3:56 PM 53.6 °F - 48.2 °F 82% 29.98 in 10.0 mi NNW 5.8 mph - N/A   Overcast
4:16 PM 51.8 °F - 46.4 °F 82% 29.98 in 10.0 mi West 6.9 mph - N/A   Overcast
4:36 PM 51.8 °F - 44.6 °F 76% 29.98 in 10.0 mi West 6.9 mph - N/A   Overcast
4:56 PM 51.8 °F - 46.4 °F 82% 29.98 in 10.0 mi Calm Calm - N/A   Overcast
5:16 PM 51.8 °F - 46.4 °F 82% 29.97 in 10.0 mi North 3.5 mph - 0.01 in   Overcast
5:36 PM 50.0 °F - 46.4 °F 87% 29.97 in 10.0 mi Calm Calm - 0.01 in   Overcast
5:56 PM 51.8 °F - 46.4 °F 82% 29.96 in 10.0 mi Calm Calm - 0.01 in   Overcast
6:16 PM 51.8 °F - 46.4 °F 82% 29.96 in 10.0 mi Calm Calm - N/A   Overcast
6:36 PM 51.8 °F - 46.4 °F 82% 29.95 in 10.0 mi ESE 3.5 mph - N/A   Overcast
6:56 PM 51.8 °F - 46.4 °F 82% 29.94 in 10.0 mi East 10.4 mph - N/A   Overcast
7:16 PM 51.8 °F - 46.4 °F 82% 29.95 in 10.0 mi South 4.6 mph - N/A   Overcast
7:36 PM 51.8 °F - 46.4 °F 82% 29.95 in 10.0 mi Calm Calm - N/A   Overcast
7:56 PM 51.8 °F - 46.4 °F 82% 29.95 in 10.0 mi South 3.5 mph - N/A   Overcast
8:16 PM 51.8 °F - 44.6 °F 76% 29.94 in 10.0 mi South 3.5 mph - N/A   Overcast
8:36 PM 51.8 °F - 46.4 °F 82% 29.94 in 10.0 mi East 3.5 mph - N/A   Overcast
8:56 PM 51.8 °F - 46.4 °F 82% 29.94 in 10.0 mi East 8.1 mph - N/A   Overcast
9:16 PM 51.8 °F - 46.4 °F 82% 29.94 in 10.0 mi East 10.4 mph - N/A   Overcast
9:36 PM 51.8 °F - 44.6 °F 76% 29.94 in 10.0 mi East 10.4 mph - N/A   Overcast
9:56 PM 51.8 °F - 44.6 °F 76% 29.94 in 10.0 mi East 8.1 mph - N/A   Overcast
10:16 PM 51.8 °F - 44.6 °F 76% 29.94 in 10.0 mi East 5.8 mph - N/A   Overcast
10:36 PM 51.8 °F - 44.6 °F 76% 29.94 in 10.0 mi East 6.9 mph - N/A   Overcast
10:56 PM 51.8 °F - 44.6 °F 76% 29.93 in 10.0 mi East 8.1 mph - N/A   Overcast
11:16 PM 50.0 °F - 44.6 °F 82% 29.93 in 10.0 mi ESE 8.1 mph - N/A   Overcast
11:36 PM 50.0 °F - 44.6 °F 82% 29.92 in 10.0 mi ESE 6.9 mph - N/A   Overcast
11:56 PM 48.2 °F - 44.6 °F 87% 29.92 in 10.0 mi ESE 4.6 mph - N/A   Overcast